Location: Berkeley
(37.8716°N, 122.2727°W)
Time: 02:57:31
(UTC-07:00)

Tiangong 2 - Pass Details

Date: 20 February 2019
Orbit: 379 x 390 km, 42.8° (Epoch: 21 March)

Event Time Altitude Azimuth Distance (km) Brightness Sun altitude
Rises 19:28:22 0° 283° (WNW) 2,251 6.5 -19.4°
Reaches altitude 10° 19:30:44 10° 267° (W) 1,393 5.1 -19.9°
Maximum altitude 19:33:12 21° 215° (SW) 906 3.3 -20.4°
Enters shadow 19:34:04 19° 191° (S) 977 3.2 -20.6°
